Location: Bu�n Treun
(12.1333°N, 108.3167°E)
Time: 13:14:41
(UTC+00:00)

Cosmos 1328 - Pass Details

Date: 13 July 2020
Orbit: 538 x 546 km, 82.5° (Epoch: 07 August)

Event Time Altitude Azimuth Distance (km) Brightness Sun altitude
Exits shadow 12:37:19 15° 187° (S) 1,528 5.9 -18.8°
Maximum altitude 12:40:37 82° 275° (W) 550 3.8 -19.6°
Drops below altitude 10° 12:44:34 10° 2° (N) 1,797 6.8 -20.4°
Sets 12:46:42 0° 3° (N) 2,687 7.7 -20.9°
